Regional Weather Roundup
Issued by NWS Goodland, KS

Home | Current Version | Previous Version | Text Only | Print | Product List | Glossary Off
Versions: 1 2 3 4 5 6 7 8 9 10 11 12 13 14 15 16 17 18 19 20 21 22 23 24 25 26 27 28 29 30 31 32 33 34 35 36 37 38 39 40 41 42 43 44 45 46 47 48 49 50

000
ASUS43 KGLD 280059
RWRGLD

GOODLAND FORECAST AREA HOURLY WEATHER ROUNDUP
NATIONAL WEATHER SERVICE GOODLAND KS
700 PM MDT MON JUL 27 2015

...OFFICIAL OBSERVATIONS...

CITY           SKY/WX    TMP DP  RH WIND       PRES   REMARKS
GOODLAND KS    MOSUNNY   89  67  47 SE13      29.77F
HILL CITY KS   CLEAR     91  69  48 S13G21    29.76S
IMPERIAL NEB   SUNNY     92  66  42 S18G29    29.72F
MCCOOK NEB     SUNNY     92  69  47 S16G24    29.72F
AKRON CO         N/A    N/A N/A N/A MISG      29.78F
BURLINGTON CO  MOSUNNY   89  65  44 SE12      29.79F
LIMON CO       PTSUNNY   84  51  31 S12G21    29.88S
$$

...UNOFFICIAL OBSERVATIONS...

CITY           SKY/WX    TMP DP  RH WIND       PRES   REMARKS
COLBY KS       SUNNY     90  73  58 SE18      29.78S
LENORA KS        N/A     89  32  13 MISG        N/A
NORTON KS      CLEAR     90  63  40 SE13      29.75S
SHARON SPRINGS   N/A     89  69  51 N14         N/A
KIT CARSON CO    N/A     94  54  25 MISG        N/A
$$


USA.gov is the U.S. government's official web portal to all federal, state and local government web resources and services.